QPF
0.00 0.00 0.00 0.00 0.00 0.00 0.00 0.00 0.00 0.00 0.00 0.00 0.00 0.00 0.00 0.00 0.00 0.01 0.01 0.01 0.01 0.01 0.00 0.00 0.01 0.02 0.03 0.03 0.04 0.04 0.05 0.05 0.04 0.04 0.02 0.02 0.02 0.02 0.02 0.01 0.01 0.01 0.01 0.01 0.01 0.01 0.02 0.02 0.02
0.00 0.00 0.01 0.00 0.00 0.00 0.00 0.00 0.00 0.00 0.00 0.00 0.00 0.00 0.00 0.00 0.00 0.01 0.01 0.01 0.02 0.01 0.00 0.00 0.02 0.02 0.03 0.04 0.04 0.04 0.04 0.04 0.03 0.03 0.03 0.02 0.02 0.02 0.01 0.01 0.01 0.01 0.01 0.01 0.01 0.01 0.01 0.01 0.01
0.00 0.00 0.00 0.00 0.00 0.00 0.00 0.00 0.00 0.00 0.00 0.00 0.00 0.00 0.00 0.00 0.00 0.00 0.01 0.01 0.01 0.01 0.01 0.01 0.01 0.03 0.04 0.05 0.05 0.05 0.04 0.04 0.03 0.03 0.03 0.02 0.02 0.02 0.02 0.02 0.01 0.01 0.01 0.01 0.00 0.01 0.01 0.01 0.00
0.00 0.00 0.00 0.00 0.00 0.00 0.00 0.00 0.00 0.00 0.00 0.00 0.00 0.00 0.00 0.00 0.00 0.00 0.00 0.01 0.01 0.01 0.01 0.00 0.01 0.03 0.03 0.04 0.06 0.06 0.05 0.04 0.03 0.02 0.02 0.02 0.03 0.03 0.02 0.02 0.01 0.01 0.01 0.00 0.00 0.01 0.01 0.01 0.00
0.00 0.00 0.00 0.00 0.00 0.00 0.00 0.00 0.00 0.00 0.00 0.00 0.00 0.00 0.00 0.00 0.00 0.00 0.00 0.01 0.01 0.01 0.01 0.01 0.01 0.02 0.03 0.03 0.05 0.06 0.06 0.05 0.04 0.03 0.02 0.02 0.02 0.02 0.02 0.02 0.02 0.01 0.01 0.01 0.00 0.00 0.01 0.01 0.00
0.00 0.00 0.00 0.00 0.00 0.00 0.00 0.00 0.00 0.00 0.00 0.00 0.00 0.00 0.01 0.00 0.00 0.00 0.01 0.01 0.02 0.01 0.01 0.01 0.01 0.03 0.03 0.03 0.06 0.07 0.08 0.07 0.05 0.03 0.03 0.03 0.03 0.03 0.02 0.02 0.03 0.02 0.01 0.01 0.00 0.00 0.00 0.00 0.01
0.00 0.00 0.00 0.00 0.00 0.00 0.00 0.00 0.00 0.00 0.00 0.00 0.00 0.00 0.01 0.00 0.01 0.01 0.01 0.01 0.02 0.02 0.02 0.01 0.01 0.03 0.04 0.03 0.05 0.09 0.10 0.10 0.06 0.05 0.04 0.04 0.03 0.02 0.03 0.03 0.03 0.03 0.02 0.01 0.01 0.01 0.01 0.01 0.01
0.00 0.00 0.00 0.00 0.00 0.00 0.00 0.00 0.00 0.00 0.00 0.00 0.00 0.00 0.01 0.01 0.00 0.01 0.01 0.02 0.03 0.03 0.03 0.02 0.02 0.03 0.04 0.04 0.03 0.07 0.09 0.10 0.07 0.05 0.04 0.03 0.03 0.03 0.03 0.02 0.02 0.02 0.02 0.01 0.01 0.01 0.01 0.01 0.01
0.00 0.00 0.00 0.00 0.00 0.00 0.00 0.00 0.00 0.00 0.00 0.00 0.00 0.00 0.00 0.00 0.01 0.01 0.01 0.02 0.03 0.03 0.04 0.03 0.03 0.05 0.06 0.06 0.04 0.05 0.07 0.09 0.07 0.04 0.02 0.03 0.03 0.03 0.03 0.02 0.02 0.02 0.02 0.02 0.01 0.01 0.01 0.01 0.01
0.00 0.00 0.00 0.00 0.00 0.00 0.00 0.00 0.00 0.01 0.00 0.00 0.01 0.01 0.01 0.00 0.01 0.01 0.02 0.03 0.03 0.03 0.04 0.04 0.03 0.04 0.07 0.08 0.08 0.07 0.08 0.09 0.07 0.04 0.04 0.04 0.05 0.04 0.03 0.03 0.03 0.03 0.03 0.03 0.02 0.01 0.01 0.00 0.00
0.00 0.00 0.00 0.00 0.00 0.00 0.00 0.00 0.00 0.01 0.00 0.00 0.01 0.01 0.01 0.01 0.03 0.03 0.03 0.03 0.04 0.03 0.03 0.04 0.04 0.05 0.06 0.09 0.11 0.10 0.10 0.09 0.07 0.07 0.06 0.06 0.07 0.06 0.04 0.04 0.03 0.03 0.03 0.03 0.03 0.02 0.01 0.00 0.00
0.00 0.00 0.00 0.00 0.00 0.00 0.00 0.00 0.00 0.01 0.00 0.00 0.00 0.01 0.01 0.02 0.03 0.03 0.04 0.04 0.06 0.05 0.04 0.06 0.07 0.06 0.06 0.08 0.10 0.12 0.10 0.10 0.08 0.08 0.06 0.06 0.07 0.05 0.04 0.03 0.03 0.03 0.03 0.03 0.04 0.03 0.02 0.02 0.02
0.00 0.00 0.00 0.00 0.00 0.00 0.00 0.00 0.00 0.00 0.00 0.00 0.01 0.01 0.01 0.01 0.02 0.03 0.04 0.05 0.07 0.07 0.05 0.06 0.07 0.08 0.08 0.09 0.10 0.11 0.11 0.10 0.10 0.09 0.08 0.08 0.08 0.06 0.05 0.03 0.02 0.03 0.03 0.02 0.03 0.03 0.04 0.04 0.04
0.00 0.00 0.00 0.00 0.00 0.00 0.00 0.00 0.01 0.00 0.01 0.01 0.00 0.01 0.01 0.01 0.02 0.03 0.04 0.05 0.05 0.05 0.03 0.03 0.06 0.07 0.08 0.11 0.13 0.14 0.13 0.11 0.10 0.10 0.10 0.09 0.09 0.09 0.06 0.04 0.03 0.03 0.02 0.02 0.03 0.03 0.04 0.03 0.04
0.00 0.01 0.01 0.00 0.00 0.00 0.00 0.00 0.00 0.00 0.00 0.01 0.01 0.01 0.01 0.01 0.02 0.03 0.04 0.03 0.02 0.02 0.02 0.02 0.04 0.07 0.08 0.08 0.12 0.15 0.16 0.14 0.11 0.11 0.13 0.11 0.09 0.10 0.09 0.06 0.04 0.03 0.02 0.03 0.03 0.02 0.03 0.03 0.02
0.01 0.01 0.01 0.00 0.00 0.00 0.01 0.01 0.01 0.01 0.00 0.00 0.00 0.01 0.01 0.01 0.02 0.03 0.02 0.01 0.01 0.01 0.01 0.02 0.02 0.04 0.06 0.07 0.08 0.10 0.13 0.15 0.13 0.12 0.11 0.11 0.09 0.09 0.09 0.08 0.05 0.03 0.03 0.04 0.04 0.02 0.02 0.02 0.03
0.01 0.01 0.00 0.00 0.00 0.00 0.01 0.01 0.02 0.01 0.00 0.00 0.00 0.01 0.01 0.02 0.03 0.03 0.02 0.01 0.01 0.01 0.01 0.01 0.02 0.02 0.04 0.05 0.06 0.06 0.07 0.09 0.10 0.10 0.09 0.10 0.09 0.08 0.08 0.09 0.06 0.04 0.04 0.05 0.05 0.03 0.03 0.02 0.03
0.01 0.01 0.01 0.00 0.01 0.01 0.01 0.01 0.02 0.01 0.01 0.01 0.02 0.02 0.02 0.02 0.02 0.03 0.02 0.01 0.01 0.02 0.02 0.02 0.02 0.02 0.02 0.03 0.04 0.04 0.04 0.05 0.05 0.05 0.05 0.07 0.09 0.09 0.09 0.11 0.09 0.05 0.04 0.05 0.05 0.04 0.04 0.06 0.07
0.01 0.01 0.01 0.00 0.01 0.01 0.01 0.01 0.02 0.01 0.01 0.02 0.03 0.02 0.02 0.01 0.02 0.02 0.01 0.01 0.01 0.02 0.02 0.02 0.02 0.02 0.02 0.02 0.03 0.03 0.03 0.03 0.03 0.03 0.03 0.03 0.06 0.08 0.08 0.07 0.08 0.07 0.05 0.05 0.05 0.06 0.06 0.07 0.09
0.00 0.01 0.01 0.01 0.01 0.02 0.02 0.01 0.01 0.01 0.03 0.04 0.03 0.02 0.01 0.01 0.02 0.01 0.01 0.01 0.01 0.02 0.02 0.02 0.02 0.02 0.03 0.03 0.02 0.03 0.03 0.02 0.02 0.02 0.02 0.03 0.04 0.05 0.05 0.05 0.06 0.07 0.05 0.05 0.05 0.06 0.07 0.09 0.11
0.00 0.00 0.00 0.01 0.01 0.01 0.01 0.01 0.01 0.01 0.02 0.02 0.02 0.01 0.00 0.01 0.01 0.01 0.00 0.00 0.01 0.02 0.03 0.02 0.02 0.02 0.03 0.03 0.03 0.02 0.03 0.02 0.02 0.01 0.01 0.02 0.03 0.03 0.04 0.04 0.04 0.04 0.05 0.05 0.04 0.05 0.06 0.09 0.11
0.00 0.00 0.00 0.00 0.01 0.01 0.01 0.01 0.01 0.01 0.01 0.01 0.01 0.01 0.00 0.00 0.01 0.00 0.01 0.00 0.00 0.01 0.02 0.03 0.03 0.03 0.03 0.04 0.04 0.03 0.02 0.02 0.02 0.01 0.01 0.01 0.02 0.02 0.03 0.03 0.02 0.02 0.03 0.04 0.05 0.06 0.07 0.09 0.09
0.01 0.00 0.00 0.01 0.01 0.01 0.00 0.01 0.01 0.01 0.01 0.01 0.01 0.00 0.00 0.00 0.00 0.00 0.01 0.01 0.00 0.01 0.02 0.02 0.03 0.03 0.03 0.02 0.02 0.03 0.02 0.01 0.01 0.01 0.01 0.02 0.02 0.01 0.02 0.02 0.02 0.02 0.02 0.03 0.03 0.05 0.05 0.08 0.09
0.00 0.00 0.00 0.01 0.01 0.01 0.00 0.00 0.00 0.00 0.01 0.01 0.01 0.00 0.00 0.00 0.00 0.00 0.00 0.00 0.00 0.01 0.01 0.02 0.02 0.03 0.03 0.03 0.02 0.02 0.02 0.02 0.01 0.01 0.01 0.01 0.02 0.01 0.01 0.01 0.02 0.03 0.03 0.02 0.02 0.03 0.03 0.06 0.08
0.01 0.01 0.02 0.02 0.02 0.01 0.00 0.00 0.00 0.00 0.00 0.00 0.00 0.00 0.00 0.00 0.00 0.00 0.00 0.00 0.00 0.01 0.01 0.01 0.02 0.02 0.02 0.03 0.02 0.02 0.02 0.02 0.01 0.01 0.01 0.01 0.01 0.01 0.01 0.02 0.02 0.02 0.03 0.04 0.03 0.04 0.03 0.04 0.06
0.01 0.02 0.02 0.02 0.02 0.01 0.00 0.00 0.00 0.00 0.00 0.00 0.00 0.00 0.00 0.00 0.00 0.00 0.00 0.00 0.00 0.00 0.01 0.01 0.01 0.01 0.02 0.02 0.03 0.04 0.04 0.03 0.02 0.02 0.02 0.02 0.01 0.01 0.01 0.02 0.02 0.02 0.03 0.04 0.05 0.05 0.05 0.03 0.03
0.02 0.02 0.02 0.02 0.02 0.01 0.01 0.00 0.00 0.00 0.00 0.00 0.00 0.00 0.00 0.00 0.00 0.00 0.00 0.00 0.01 0.01 0.01 0.01 0.00 0.00 0.01 0.01 0.02 0.04 0.06 0.06 0.05 0.04 0.03 0.02 0.02 0.02 0.02 0.02 0.02 0.02 0.03 0.04 0.05 0.05 0.04 0.04 0.02
0.01 0.02 0.02 0.04 0.03 0.01 0.01 0.00 0.00 0.00 0.00 0.00 0.00 0.00 0.00 0.00 0.00 0.00 0.00 0.00 0.01 0.01 0.01 0.01 0.00 0.00 0.01 0.01 0.02 0.03 0.05 0.05 0.05 0.05 0.05 0.04 0.03 0.03 0.03 0.03 0.03 0.03 0.03 0.03 0.04 0.04 0.05 0.05 0.04
0.02 0.02 0.02 0.03 0.03 0.03 0.02 0.01 0.00 0.00 0.00 0.00 0.00 0.00 0.00 0.00 0.00 0.00 0.00 0.00 0.00 0.01 0.01 0.01 0.01 0.01 0.02 0.02 0.03 0.03 0.04 0.04 0.04 0.04 0.04 0.04 0.05 0.05 0.05 0.05 0.04 0.04 0.04 0.04 0.03 0.03 0.03 0.03 0.03
0.02 0.02 0.02 0.03 0.02 0.02 0.02 0.02 0.00 0.00 0.00 0.00 0.00 0.00 0.00 0.00 0.00 0.00 0.00 0.00 0.00 0.00 0.01 0.02 0.02 0.02 0.01 0.01 0.02 0.02 0.02 0.02 0.02 0.03 0.03 0.03 0.03 0.04 0.05 0.05 0.05 0.04 0.04 0.04 0.04 0.04 0.04 0.03 0.03
MSLP
1010.56 1010.89 1011.34 1011.79 1012.15 1012.31 1012.26 1012.01 1011.65 1011.28 1011.03 1010.96 1011.12 1011.49 1011.99 1012.54 1013.03 1013.39 1013.59 1013.65 1013.64 1013.62 1013.69 1013.87 1014.19 1014.60 1015.05 1015.48 1015.81 1016.04 1016.16 1016.20 1016.23 1016.28 1016.38 1016.54 1016.74 1016.95 1017.12 1017.24 1017.29 1017.28 1017.25 1017.22 1017.22 1017.27 1017.34 1017.44 1017.52
1010.97 1011.34 1011.78 1012.16 1012.39 1012.40 1012.19 1011.82 1011.36 1010.95 1010.69 1010.65 1010.85 1011.26 1011.79 1012.35 1012.84 1013.19 1013.40 1013.48 1013.50 1013.55 1013.67 1013.91 1014.28 1014.72 1015.17 1015.59 1015.91 1016.12 1016.24 1016.31 1016.37 1016.46 1016.60 1016.81 1017.03 1017.25 1017.42 1017.52 1017.55 1017.52 1017.48 1017.43 1017.43 1017.46 1017.53 1017.61 1017.68
1011.52 1011.91 1012.29 1012.55 1012.61 1012.44 1012.06 1011.55 1011.02 1010.59 1010.37 1010.39 1010.67 1011.15 1011.73 1012.32 1012.82 1013.18 1013.38 1013.48 1013.52 1013.60 1013.76 1014.04 1014.42 1014.86 1015.31 1015.70 1016.00 1016.21 1016.33 1016.41 1016.50 1016.63 1016.82 1017.05 1017.30 1017.52 1017.68 1017.77 1017.79 1017.75 1017.70 1017.66 1017.65 1017.69 1017.75 1017.80 1017.84
1012.14 1012.51 1012.80 1012.91 1012.78 1012.42 1011.88 1011.26 1010.68 1010.26 1010.10 1010.21 1010.59 1011.16 1011.81 1012.44 1012.95 1013.31 1013.51 1013.61 1013.67 1013.76 1013.93 1014.22 1014.60 1015.04 1015.46 1015.83 1016.11 1016.30 1016.43 1016.53 1016.64 1016.80 1017.02 1017.27 1017.52 1017.74 1017.91 1017.99 1018.01 1017.99 1017.95 1017.93 1017.94 1017.97 1018.02 1018.06 1018.06
1012.71 1013.04 1013.22 1013.17 1012.86 1012.33 1011.66 1010.96 1010.36 1009.99 1009.91 1010.13 1010.61 1011.27 1011.98 1012.65 1013.17 1013.52 1013.72 1013.81 1013.87 1013.97 1014.15 1014.44 1014.82 1015.23 1015.63 1015.98 1016.24 1016.42 1016.55 1016.67 1016.80 1016.98 1017.20 1017.46 1017.72 1017.94 1018.11 1018.20 1018.24 1018.25 1018.24 1018.25 1018.28 1018.32 1018.37 1018.38 1018.35
1013.14 1013.40 1013.46 1013.26 1012.81 1012.15 1011.39 1010.66 1010.08 1009.78 1009.80 1010.13 1010.71 1011.44 1012.20 1012.88 1013.40 1013.75 1013.93 1014.02 1014.08 1014.18 1014.37 1014.66 1015.03 1015.43 1015.81 1016.14 1016.39 1016.57 1016.71 1016.83 1016.98 1017.17 1017.40 1017.66 1017.91 1018.12 1018.29 1018.40 1018.47 1018.52 1018.56 1018.60 1018.66 1018.71 1018.75 1018.74 1018.68
1013.34 1013.52 1013.47 1013.16 1012.60 1011.88 1011.09 1010.38 1009.87 1009.65 1009.77 1010.19 1010.84 1011.61 1012.39 1013.06 1013.57 1013.90 1014.08 1014.16 1014.24 1014.35 1014.56 1014.85 1015.22 1015.61 1015.99 1016.31 1016.56 1016.74 1016.89 1017.03 1017.19 1017.38 1017.61 1017.85 1018.09 1018.30 1018.47 1018.60 1018.69 1018.77 1018.85 1018.93 1019.01 1019.07 1019.09 1019.06 1018.98
1013.30 1013.39 1013.25 1012.87 1012.27 1011.54 1010.79 1010.15 1009.72 1009.60 1009.81 1010.29 1010.98 1011.75 1012.51 1013.16 1013.64 1013.95 1014.13 1014.23 1014.32 1014.46 1014.69 1015.00 1015.37 1015.77 1016.14 1016.46 1016.71 1016.91 1017.07 1017.22 1017.39 1017.59 1017.81 1018.05 1018.27 1018.47 1018.63 1018.77 1018.88 1018.98 1019.09 1019.19 1019.28 1019.34 1019.35 1019.29 1019.18
1013.07 1013.08 1012.88 1012.47 1011.88 1011.20 1010.53 1009.99 1009.67 1009.64 1009.90 1010.41 1011.09 1011.83 1012.54 1013.14 1013.59 1013.89 1014.07 1014.20 1014.33 1014.51 1014.77 1015.10 1015.49 1015.88 1016.25 1016.56 1016.82 1017.03 1017.21 1017.38 1017.56 1017.77 1017.99 1018.21 1018.42 1018.60 1018.76 1018.89 1019.01 1019.12 1019.23 1019.34 1019.42 1019.47 1019.46 1019.39 1019.27
1012.74 1012.67 1012.44 1012.03 1011.50 1010.91 1010.36 1009.93 1009.72 1009.76 1010.05 1010.54 1011.17 1011.84 1012.48 1013.01 1013.43 1013.72 1013.92 1014.10 1014.28 1014.52 1014.81 1015.17 1015.56 1015.94 1016.30 1016.61 1016.86 1017.08 1017.27 1017.46 1017.65 1017.87 1018.09 1018.31 1018.51 1018.69 1018.83 1018.96 1019.07 1019.18 1019.28 1019.37 1019.44 1019.47 1019.45 1019.37 1019.25
1012.41 1012.29 1012.04 1011.67 1011.22 1010.74 1010.31 1010.00 1009.87 1009.94 1010.22 1010.65 1011.19 1011.76 1012.31 1012.78 1013.16 1013.46 1013.71 1013.94 1014.19 1014.48 1014.82 1015.19 1015.57 1015.94 1016.27 1016.56 1016.80 1017.01 1017.21 1017.41 1017.63 1017.85 1018.09 1018.31 1018.52 1018.69 1018.84 1018.96 1019.07 1019.16 1019.25 1019.32 1019.37 1019.38 1019.35 1019.28 1019.17
1012.17 1012.00 1011.76 1011.44 1011.08 1010.72 1010.40 1010.18 1010.10 1010.17 1010.39 1010.73 1011.15 1011.61 1012.05 1012.46 1012.82 1013.14 1013.44 1013.74 1014.05 1014.40 1014.77 1015.15 1015.52 1015.86 1016.16 1016.41 1016.63 1016.83 1017.02 1017.23 1017.46 1017.71 1017.96 1018.21 1018.43 1018.62 1018.78 1018.91 1019.02 1019.11 1019.19 1019.24 1019.28 1019.28 1019.25 1019.19 1019.12
1012.05 1011.85 1011.62 1011.36 1011.09 1010.83 1010.61 1010.45 1010.38 1010.41 1010.54 1010.76 1011.04 1011.37 1011.71 1012.06 1012.40 1012.75 1013.11 1013.48 1013.86 1014.26 1014.66 1015.04 1015.39 1015.70 1015.96 1016.17 1016.36 1016.54 1016.73 1016.94 1017.18 1017.45 1017.72 1018.00 1018.25 1018.47 1018.66 1018.81 1018.94 1019.04 1019.12 1019.19 1019.22 1019.23 1019.22 1019.19 1019.16
1012.04 1011.83 1011.62 1011.42 1011.22 1011.04 1010.88 1010.74 1010.65 1010.61 1010.63 1010.70 1010.84 1011.04 1011.29 1011.59 1011.92 1012.30 1012.71 1013.14 1013.58 1014.02 1014.44 1014.82 1015.15 1015.43 1015.66 1015.85 1016.01 1016.18 1016.37 1016.58 1016.84 1017.12 1017.41 1017.71 1018.00 1018.26 1018.49 1018.68 1018.85 1018.98 1019.09 1019.17 1019.24 1019.28 1019.30 1019.32 1019.34
1012.07 1011.86 1011.68 1011.53 1011.40 1011.28 1011.14 1011.01 1010.86 1010.73 1010.63 1010.57 1010.57 1010.65 1010.81 1011.06 1011.39 1011.78 1012.22 1012.70 1013.18 1013.64 1014.08 1014.47 1014.79 1015.06 1015.28 1015.47 1015.64 1015.81 1016.00 1016.23 1016.48 1016.77 1017.08 1017.40 1017.71 1018.01 1018.28 1018.53 1018.74 1018.92 1019.07 1019.20 1019.30 1019.39 1019.47 1019.54 1019.62
1012.08 1011.87 1011.73 1011.63 1011.56 1011.47 1011.36 1011.20 1011.00 1010.76 1010.54 1010.35 1010.23 1010.20 1010.29 1010.49 1010.80 1011.20 1011.65 1012.15 1012.64 1013.12 1013.57 1013.96 1014.30 1014.60 1014.85 1015.07 1015.27 1015.48 1015.69 1015.93 1016.19 1016.47 1016.78 1017.09 1017.42 1017.74 1018.04 1018.33 1018.59 1018.82 1019.03 1019.21 1019.37 1019.51 1019.65 1019.79 1019.93
1012.00 1011.83 1011.73 1011.69 1011.66 1011.60 1011.49 1011.30 1011.03 1010.71 1010.37 1010.07 1009.85 1009.74 1009.76 1009.91 1010.19 1010.57 1011.02 1011.49 1011.98 1012.46 1012.90 1013.32 1013.70 1014.04 1014.36 1014.66 1014.94 1015.20 1015.46 1015.72 1015.98 1016.24 1016.52 1016.82 1017.13 1017.44 1017.76 1018.07 1018.36 1018.64 1018.90 1019.13 1019.35 1019.56 1019.75 1019.95 1020.15
1011.84 1011.71 1011.67 1011.68 1011.70 1011.66 1011.54 1011.31 1010.97 1010.57 1010.14 1009.75 1009.45 1009.27 1009.24 1009.35 1009.59 1009.93 1010.33 1010.77 1011.22 1011.67 1012.12 1012.55 1012.99 1013.41 1013.83 1014.24 1014.62 1014.98 1015.30 1015.58 1015.84 1016.08 1016.32 1016.57 1016.84 1017.12 1017.42 1017.73 1018.04 1018.34 1018.63 1018.91 1019.17 1019.42 1019.68 1019.93 1020.18
1011.62 1011.55 1011.58 1011.65 1011.70 1011.67 1011.53 1011.26 1010.86 1010.38 1009.87 1009.41 1009.05 1008.82 1008.75 1008.82 1009.02 1009.31 1009.65 1010.03 1010.43 1010.83 1011.26 1011.72 1012.21 1012.72 1013.26 1013.80 1014.30 1014.76 1015.16 1015.48 1015.74 1015.95 1016.13 1016.32 1016.52 1016.75 1017.00 1017.29 1017.59 1017.90 1018.20 1018.50 1018.79 1019.07 1019.37 1019.66 1019.96
1011.42 1011.43 1011.52 1011.64 1011.71 1011.68 1011.50 1011.16 1010.70 1010.14 1009.57 1009.05 1008.65 1008.39 1008.29 1008.34 1008.50 1008.74 1009.02 1009.32 1009.65 1010.00 1010.40 1010.87 1011.40 1012.00 1012.65 1013.30 1013.93 1014.49 1014.96 1015.32 1015.58 1015.76 1015.89 1016.01 1016.14 1016.31 1016.52 1016.76 1017.04 1017.33 1017.63 1017.92 1018.21 1018.51 1018.82 1019.14 1019.46
1011.31 1011.40 1011.55 1011.70 1011.78 1011.71 1011.47 1011.05 1010.50 1009.86 1009.23 1008.67 1008.24 1007.97 1007.87 1007.91 1008.05 1008.25 1008.47 1008.71 1008.96 1009.26 1009.61 1010.07 1010.62 1011.28 1012.00 1012.75 1013.47 1014.12 1014.64 1015.03 1015.29 1015.45 1015.54 1015.61 1015.68 1015.80 1015.96 1016.18 1016.42 1016.69 1016.96 1017.24 1017.51 1017.80 1018.10 1018.42 1018.76
1011.34 1011.49 1011.70 1011.86 1011.91 1011.77 1011.44 1010.92 1010.25 1009.52 1008.82 1008.23 1007.79 1007.53 1007.45 1007.51 1007.66 1007.85 1008.04 1008.23 1008.43 1008.66 1008.97 1009.38 1009.92 1010.59 1011.34 1012.13 1012.90 1013.58 1014.14 1014.55 1014.81 1014.96 1015.03 1015.07 1015.12 1015.22 1015.36 1015.56 1015.80 1016.05 1016.30 1016.55 1016.80 1017.05 1017.32 1017.62 1017.95
1011.49 1011.71 1011.94 1012.09 1012.08 1011.84 1011.39 1010.74 1009.95 1009.12 1008.35 1007.72 1007.29 1007.07 1007.03 1007.14 1007.33 1007.55 1007.75 1007.92 1008.08 1008.26 1008.51 1008.86 1009.36 1009.98 1010.70 1011.47 1012.22 1012.90 1013.45 1013.86 1014.11 1014.26 1014.33 1014.39 1014.46 1014.57 1014.75 1014.97 1015.22 1015.48 1015.72 1015.95 1016.16 1016.38 1016.61 1016.87 1017.18
1011.72 1012.00 1012.23 1012.33 1012.23 1011.88 1011.28 1010.48 1009.57 1008.64 1007.82 1007.17 1006.75 1006.57 1006.61 1006.80 1007.06 1007.34 1007.58 1007.77 1007.92 1008.07 1008.26 1008.55 1008.96 1009.49 1010.12 1010.81 1011.49 1012.10 1012.61 1012.98 1013.23 1013.38 1013.48 1013.58 1013.71 1013.89 1014.13 1014.42 1014.72 1015.02 1015.28 1015.50 1015.69 1015.87 1016.05 1016.27 1016.54
1011.96 1012.26 1012.48 1012.52 1012.31 1011.83 1011.09 1010.16 1009.12 1008.12 1007.24 1006.59 1006.21 1006.10 1006.22 1006.50 1006.87 1007.24 1007.55 1007.78 1007.94 1008.07 1008.22 1008.43 1008.73 1009.15 1009.65 1010.20 1010.75 1011.25 1011.67 1011.99 1012.21 1012.38 1012.52 1012.69 1012.90 1013.19 1013.53 1013.92 1014.31 1014.67 1014.98 1015.22 1015.41 1015.56 1015.70 1015.88 1016.10
1012.12 1012.43 1012.61 1012.57 1012.26 1011.65 1010.80 1009.76 1008.65 1007.59 1006.70 1006.07 1005.74 1005.70 1005.91 1006.30 1006.76 1007.23 1007.62 1007.91 1008.11 1008.24 1008.35 1008.48 1008.68 1008.95 1009.30 1009.68 1010.08 1010.44 1010.74 1010.98 1011.16 1011.33 1011.52 1011.76 1012.08 1012.48 1012.95 1013.45 1013.96 1014.41 1014.79 1015.07 1015.28 1015.42 1015.55 1015.69 1015.87
1012.15 1012.44 1012.56 1012.44 1012.04 1011.36 1010.42 1009.33 1008.19 1007.13 1006.27 1005.68 1005.41 1005.44 1005.74 1006.20 1006.76 1007.30 1007.77 1008.12 1008.36 1008.49 1008.58 1008.65 1008.74 1008.88 1009.07 1009.29 1009.51 1009.71 1009.89 1010.03 1010.17 1010.33 1010.55 1010.86 1011.27 1011.78 1012.37 1013.00 1013.62 1014.17 1014.64 1014.99 1015.23 1015.40 1015.52 1015.64 1015.80
1012.02 1012.26 1012.32 1012.14 1011.68 1010.94 1009.99 1008.91 1007.80 1006.80 1006.00 1005.48 1005.28 1005.38 1005.73 1006.26 1006.86 1007.45 1007.96 1008.35 1008.61 1008.76 1008.83 1008.85 1008.87 1008.90 1008.95 1009.01 1009.08 1009.13 1009.18 1009.23 1009.32 1009.45 1009.69 1010.04 1010.52 1011.12 1011.81 1012.54 1013.26 1013.91 1014.46 1014.88 1015.19 1015.39 1015.54 1015.67 1015.82
1011.72 1011.90 1011.90 1011.67 1011.18 1010.45 1009.54 1008.53 1007.52 1006.63 1005.94 1005.52 1005.39 1005.54 1005.91 1006.44 1007.04 1007.63 1008.14 1008.53 1008.80 1008.96 1009.01 1009.01 1008.98 1008.94 1008.89 1008.84 1008.78 1008.72 1008.67 1008.64 1008.66 1008.77 1009.00 1009.37 1009.89 1010.54 1011.28 1012.08 1012.86 1013.58 1014.20 1014.69 1015.06 1015.32 1015.50 1015.66 1015.84
1011.30 1011.40 1011.33 1011.06 1010.57 1009.89 1009.08 1008.20 1007.35 1006.61 1006.06 1005.75 1005.68 1005.86 1006.22 1006.71 1007.26 1007.79 1008.25 1008.62 1008.87 1009.02 1009.08 1009.07 1009.02 1008.94 1008.84 1008.73 1008.60 1008.47 1008.35 1008.26 1008.24 1008.32 1008.53 1008.89 1009.40 1010.06 1010.81 1011.63 1012.43 1013.19 1013.85 1014.39 1014.81 1015.12 1015.37 1015.57 1015.77
Thickness
5716 5721 5724 5717 5700 5693 5699 5719 5731 5730 5733 5738 5742 5741 5733 5726 5721 5712 5723 5735 5736 5735 5733 5732 5731 5731 5731 5731 5731 5730 5730 5729 5728 5727 5727 5726 5725 5725 5724 5723 5722 5722 5722 5721 5720 5720 5719 5718 5717
5712 5718 5714 5703 5689 5682 5698 5716 5719 5722 5727 5732 5734 5734 5729 5721 5723 5720 5723 5729 5732 5732 5730 5728 5728 5728 5728 5728 5727 5727 5726 5726 5725 5724 5723 5723 5722 5721 5720 5720 5719 5718 5718 5717 5716 5715 5715 5714 5714
5708 5712 5701 5693 5688 5687 5698 5713 5714 5718 5725 5724 5722 5723 5718 5713 5716 5716 5720 5725 5727 5727 5726 5724 5724 5724 5724 5724 5724 5723 5723 5722 5721 5721 5720 5719 5719 5718 5717 5716 5715 5715 5714 5713 5712 5712 5711 5710 5710
5702 5698 5694 5685 5684 5696 5703 5707 5711 5709 5713 5717 5714 5708 5707 5709 5710 5711 5716 5720 5721 5721 5720 5719 5719 5719 5720 5720 5720 5719 5719 5718 5717 5717 5716 5716 5715 5714 5713 5712 5712 5711 5710 5709 5709 5708 5707 5706 5706
5695 5687 5678 5675 5684 5696 5703 5706 5707 5702 5703 5706 5706 5699 5694 5700 5705 5707 5710 5713 5714 5715 5715 5714 5714 5715 5715 5716 5716 5715 5714 5714 5713 5713 5712 5711 5711 5710 5709 5708 5708 5707 5706 5705 5704 5704 5703 5702 5702
5681 5680 5669 5670 5681 5691 5697 5700 5699 5695 5695 5697 5696 5691 5686 5692 5696 5699 5703 5706 5709 5709 5710 5709 5709 5710 5710 5711 5711 5711 5710 5709 5709 5708 5707 5707 5706 5706 5705 5704 5704 5703 5702 5701 5700 5699 5699 5698 5698
5671 5669 5667 5673 5676 5681 5688 5693 5688 5685 5685 5686 5690 5684 5681 5684 5688 5693 5696 5699 5702 5704 5704 5703 5704 5704 5705 5706 5706 5706 5705 5705 5704 5704 5703 5702 5702 5701 5701 5700 5699 5698 5697 5696 5696 5695 5694 5693 5693
5670 5665 5665 5667 5668 5672 5681 5683 5682 5678 5677 5684 5684 5675 5671 5676 5682 5685 5688 5691 5693 5696 5697 5698 5698 5699 5699 5700 5700 5700 5701 5700 5699 5698 5699 5698 5697 5696 5696 5695 5694 5693 5692 5691 5691 5690 5689 5689 5688
5667 5652 5652 5660 5662 5665 5673 5672 5672 5673 5671 5673 5672 5669 5671 5674 5676 5677 5678 5680 5683 5687 5689 5691 5692 5693 5694 5695 5695 5695 5695 5695 5694 5693 5693 5693 5692 5691 5691 5690 5689 5688 5687 5686 5686 5685 5684 5684 5683
5653 5641 5648 5657 5659 5659 5663 5663 5662 5661 5658 5659 5659 5661 5665 5666 5667 5668 5668 5670 5673 5677 5680 5684 5686 5687 5688 5689 5689 5689 5690 5689 5688 5688 5688 5688 5687 5687 5686 5685 5684 5683 5682 5681 5680 5680 5679 5678 5678
5647 5642 5648 5651 5653 5653 5652 5653 5656 5650 5645 5649 5650 5652 5655 5657 5657 5659 5662 5663 5665 5669 5672 5675 5678 5680 5682 5683 5683 5683 5684 5683 5683 5683 5682 5682 5681 5681 5680 5679 5677 5677 5676 5675 5674 5673 5673 5672 5672
5640 5640 5643 5642 5643 5642 5641 5644 5642 5641 5641 5647 5649 5649 5648 5648 5649 5652 5654 5656 5658 5661 5664 5668 5671 5673 5674 5675 5676 5677 5677 5677 5677 5676 5676 5676 5675 5674 5673 5672 5671 5670 5669 5668 5668 5667 5666 5666 5665
5631 5631 5635 5635 5634 5634 5634 5632 5632 5633 5636 5640 5642 5641 5640 5641 5643 5646 5648 5650 5651 5653 5657 5660 5663 5665 5667 5668 5669 5669 5670 5670 5670 5670 5670 5670 5669 5668 5667 5666 5664 5664 5663 5662 5661 5661 5660 5659 5659
5626 5625 5625 5627 5627 5627 5623 5623 5623 5627 5630 5631 5632 5632 5633 5634 5636 5638 5640 5642 5644 5646 5649 5652 5655 5657 5659 5660 5661 5661 5662 5662 5663 5662 5662 5662 5661 5661 5660 5659 5658 5657 5657 5656 5654 5653 5652 5652 5652
5619 5614 5615 5619 5620 5620 5616 5612 5616 5623 5624 5624 5624 5625 5627 5628 5630 5631 5633 5635 5636 5638 5641 5644 5647 5649 5651 5652 5653 5653 5654 5654 5654 5654 5653 5653 5653 5653 5652 5651 5650 5650 5649 5648 5647 5646 5645 5645 5645
5608 5603 5601 5611 5614 5614 5605 5601 5615 5619 5618 5617 5618 5619 5620 5621 5623 5625 5626 5628 5630 5631 5633 5635 5638 5640 5642 5644 5645 5645 5645 5646 5645 5645 5645 5644 5644 5644 5643 5642 5641 5641 5640 5639 5638 5637 5636 5635 5635
5595 5593 5597 5602 5607 5607 5600 5598 5609 5614 5614 5611 5612 5613 5614 5614 5616 5618 5619 5621 5622 5624 5626 5627 5629 5631 5633 5635 5637 5637 5636 5637 5636 5636 5635 5634 5634 5634 5634 5633 5631 5631 5631 5630 5629 5628 5627 5626 5626
5586 5590 5595 5595 5599 5598 5594 5595 5601 5606 5608 5606 5606 5607 5608 5609 5609 5611 5612 5614 5615 5616 5618 5619 5621 5623 5625 5626 5628 5628 5627 5627 5627 5627 5625 5625 5625 5625 5624 5623 5622 5621 5620 5619 5619 5618 5618 5617 5617
5586 5584 5583 5588 5592 5588 5587 5591 5596 5599 5599 5599 5599 5600 5601 5602 5603 5604 5604 5605 5605 5606 5608 5610 5611 5613 5615 5615 5617 5618 5617 5617 5617 5617 5617 5617 5616 5616 5615 5613 5612 5611 5610 5609 5609 5608 5608 5608 5608
5575 5572 5574 5580 5584 5581 5580 5584 5593 5595 5595 5596 5595 5595 5595 5594 5595 5596 5596 5596 5596 5596 5597 5600 5602 5604 5605 5606 5608 5609 5609 5609 5609 5608 5608 5608 5607 5606 5605 5604 5603 5602 5601 5600 5599 5598 5598 5598 5598
5564 5561 5562 5564 5569 5572 5569 5573 5586 5592 5592 5592 5592 5592 5590 5589 5587 5587 5587 5587 5586 5587 5588 5592 5593 5595 5596 5597 5598 5599 5599 5599 5599 5598 5598 5598 5598 5597 5597 5596 5594 5594 5592 5590 5589 5589 5589 5588 5589
5551 5555 5555 5554 5549 5551 5561 5551 5579 5587 5586 5587 5585 5584 5583 5583 5582 5580 5579 5578 5577 5577 5579 5582 5583 5585 5586 5587 5588 5589 5589 5588 5589 5590 5589 5589 5589 5589 5588 5587 5586 5585 5584 5582 5580 5580 5580 5580 5580
5542 5548 5546 5544 5541 5540 5550 5544 5563 5579 5576 5578 5578 5578 5577 5576 5575 5574 5572 5570 5569 5569 5570 5572 5573 5575 5577 5578 5579 5579 5579 5579 5579 5580 5580 5580 5580 5580 5579 5578 5578 5577 5575 5574 5572 5572 5571 5572 5571
5538 5537 5537 5536 5530 5523 5545 5541 5553 5567 5571 5571 5570 5570 5569 5568 5567 5565 5563 5561 5560 5560 5560 5561 5563 5564 5566 5567 5569 5569 5569 5569 5569 5569 5569 5570 5570 5570 5569 5569 5568 5568 5567 5566 5565 5563 5563 5562 5562
5527 5518 5514 5515 5514 5522 5547 5542 5548 5560 5564 5563 5561 5560 5560 5558 5556 5554 5552 5551 5551 5551 5551 5552 5553 5554 5555 5557 5558 5559 5559 5559 5559 5559 5559 5559 5559 5559 5559 5559 5559 5558 5558 5557 5556 5554 5553 5553 5553
5516 5515 5506 5506 5514 5524 5532 5531 5540 5551 5552 5553 5552 5550 5548 5546 5545 5543 5542 5541 5541 5542 5542 5542 5543 5543 5545 5546 5547 5548 5549 5549 5549 5549 5549 5549 5550 5550 5550 5550 5550 5549 5548 5548 5547 5545 5544 5543 5543
5509 5507 5511 5504 5507 5506 5520 5531 5532 5539 5538 5539 5537 5535 5533 5533 5533 5532 5531 5531 5531 5531 5532 5533 5533 5534 5535 5536 5537 5537 5538 5538 5538 5538 5539 5539 5539 5540 5540 5539 5539 5539 5538 5537 5537 5536 5535 5534 5533
5501 5501 5495 5493 5494 5500 5517 5523 5518 5519 5522 5523 5520 5518 5519 5520 5521 5521 5521 5520 5521 5522 5522 5523 5523 5524 5525 5526 5527 5527 5527 5528 5528 5528 5528 5528 5529 5528 5528 5528 5528 5528 5527 5527 5526 5526 5525 5524 5524
5491 5489 5488 5487 5489 5491 5497 5508 5516 5514 5512 5509 5508 5507 5507 5507 5508 5509 5509 5510 5511 5511 5512 5512 5513 5514 5515 5516 5516 5516 5517 5517 5517 5518 5518 5518 5518 5517 5517 5517 5517 5517 5517 5516 5516 5515 5515 5514 5513
5483 5483 5480 5475 5477 5482 5483 5493 5509 5506 5505 5502 5499 5498 5498 5498 5498 5498 5498 5499 5500 5500 5501 5502 5503 5503 5505 5506 5506 5506 5507 5507 5506 5506 5507 5507 5507 5507 5506 5506 5506 5506 5505 5505 5505 5504 5503 5504 5503